APRIZESAT 1

Last updated on Fri Dec 29 2023 00:03:02 GMT+0000 (Coordinated Universal Time)

1 28372U 04025G 23362.11123742 .00000716 00000+0 19321-3 0 9992 2 28372 98.5714 335.0805 0046069 19.0109 341.2791 14.50408830 31113
UTC large
Height (km)
Speed (km/s)
/
Latitude / Longitude
Inclination (degrees)
Orbital Period (minutes)
Azimuth
Elevation
Range (km)
Doppler Factor

Next 0 passes for location: London (51.5072 / 0.1276)

Sorry there are no passes over London.
APRIZESAT 1